Flag for Germany Weather past 2 weeks in Bretten, Baden-Württemberg, Germany

Now
50 °F

Passing clouds.


Feels Like: 47 °F
Forecast: 37 / 54 °F
Wind: 7 mph from West

Location: Baden Wurttemberg - Neuostheim

Current Time: Oct 23, 2014 at 9:57:20 AM

Latest Report: Oct 23, 2014 at 9:20 AM


Visibility: N/A

Pressure: 30.24 "Hg

Humidity: 76%

Dew point: 43 °F

Location of BrettenLocation

Historic Weather in Bretten — Graph

°F

Bretten temperature yesterday

Maximum temperature yesterday: 52 °F (at 2:50 PM)
Minimum temperature yesterday: 46 °F (at 6:50 AM)
Average temperature yesterday: 49 °F

Past Weeks' High & Low Weather Summary

 TemperatureHumidityPressure
High75 °F (Oct 19, 4:20 PM)100% (Oct 9, 10:20 PM)30.24 "Hg (Oct 9, 10:20 PM)
Low46 °F (Oct 18, 7:20 AM)57% (Oct 14, 3:20 PM)29.62 "Hg (Oct 21, 5:50 PM)
Average61 °F81%29.91 "Hg
* Reported Oct 8 8:20 AM — Oct 23 8:20 AM, Bretten, Weather by CustomWeather, © 2014

Note: Actual official high and low records may vary slightly from our data, if they occured in-between our weather recording intervals... More about our weather records

Advertising

Bretten weather history for previous 24 hours

 ConditionsComfort  
Time TempWeatherWind HumidityBarometerVisibility
8:20 AM
Oct 23
50 °FClear.8 mph76%30.24 "Hg10 mi
7:50 AM48 °FClear.8 mph82%30.24 "Hg10 mi
7:20 AM50 °FClear.9 mph76%30.21 "Hg10 mi
6:50 AM48 °FClear.7 mph82%30.21 "Hg10 mi
6:20 AM50 °FClear.9 mph76%30.21 "Hg10 mi
5:50 AM50 °FClear.12 mph76%30.21 "Hg10 mi
9:20 PM
Oct 22
48 °FPassing clouds.12 mph82%30.12 "HgN/A
8:50 PM50 °FLight rain. Passing clouds.13 mph76%30.12 "HgN/A
8:20 PM50 °FSprinkles. Partly cloudy.14 mph76%30.12 "HgN/A
7:50 PM50 °FScattered showers. Partly cloudy.14 mph71%30.09 "HgN/A
7:20 PM50 °FSprinkles. Broken clouds.16 mph71%30.09 "HgN/A
6:50 PM52 °FScattered showers. Broken clouds.21 mph62%30.07 "HgN/A
6:20 PM52 °FScattered showers. Broken clouds.18 mph62%30.07 "HgN/A
5:50 PM52 °FBroken clouds.20 mph62%30.07 "HgN/A
5:20 PM52 °FBroken clouds.20 mph62%30.04 "HgN/A
4:50 PM52 °FPartly sunny.16 mph62%30.04 "HgN/A
4:20 PM52 °FPartly sunny.20 mph62%30.04 "HgN/A
3:50 PM52 °FPartly sunny.17 mph62%30.04 "HgN/A
3:20 PM52 °FBroken clouds.16 mph62%30.07 "HgN/A
2:50 PM52 °FBroken clouds.15 mph62%30.07 "HgN/A
2:20 PM50 °FBroken clouds.17 mph62%30.07 "HgN/A
1:50 PM50 °FBroken clouds.16 mph67%30.07 "HgN/A
1:20 PM50 °FBroken clouds.13 mph67%30.07 "HgN/A
12:50 PM50 °FPartly sunny.16 mph67%30.07 "HgN/A
12:20 PM48 °FBroken clouds.14 mph71%30.07 "HgN/A
11:50 AM48 °FBroken clouds.14 mph71%30.07 "HgN/A
11:20 AM48 °FScattered showers. Broken clouds.17 mph66%30.07 "HgN/A
10:50 AM48 °FPartly sunny.15 mph66%30.07 "HgN/A
10:20 AM48 °FBroken clouds.14 mph66%30.07 "HgN/A
9:50 AM48 °FPartly sunny.12 mph71%30.04 "HgN/A
9:20 AM46 °FBroken clouds.13 mph76%30.04 "HgN/A
Weather by CustomWeather, © 2014

See weather overviewHow to use our weather pages